| time (UTC) | temp C | wind direction | speed KPH | gust KPH | rain 1hr cm | rain 24hr cm | rain mn cm | humidity % | barometer mb |
| 20260905045048 | 12 | 115 | 0.0 | 0.0 | 0.00 | 0.25 | 0.25 | 88 | 1003.6 |
| 20260905044509 | 12 | 115 | 0.0 | 0.0 | 0.00 | 0.25 | 0.25 | 88 | 1003.5 |
| 20260905044024 | 12 | 115 | 0.0 | 0.0 | 0.00 | 0.25 | 0.25 | 88 | 1003.6 |
| 20260905043524 | 12 | 115 | 0.0 | 0.0 | 0.00 | 0.25 | 0.25 | 87 | 1003.5 |
| 20260905043102 | 12 | 115 | 0.0 | 0.0 | 0.00 | 0.25 | 0.25 | 87 | 1003.4 |
| 20260905042552 | 12 | 115 | 0.0 | 0.0 | 0.00 | 0.25 | 0.25 | 87 | 1003.4 |
| 20260905042042 | 12 | 115 | 0.0 | 0.0 | 0.00 | 0.25 | 0.25 | 87 | 1003.4 |
| 20260905041532 | 12 | 115 | 0.0 | 0.0 | 0.00 | 0.25 | 0.25 | 87 | 1003.5 |
| 20260905041028 | 12 | 115 | 0.0 | 0.0 | 0.00 | 0.25 | 0.25 | 87 | 1003.4 |
| 20260905040536 | 12 | 115 | 0.0 | 0.0 | 0.00 | 0.25 | 0.25 | 87 | 1003.4 |
| 20260905040002 | 12 | 115 | 0.0 | 0.0 | 0.00 | 0.25 | 0.25 | 87 | 1003.3 |
| 20260905035516 | 12 | 115 | 0.0 | 0.0 | 0.00 | 0.25 | 0.25 | 87 | 1003.1 |
| 20260905035024 | 12 | 115 | 0.0 | 0.0 | 0.00 | 0.25 | 0.25 | 87 | 1003.1 |
| 20260905034607 | 12 | 101 | 0.0 | 0.0 | 0.00 | 0.25 | 0.25 | 87 | 1002.9 |
| 20260905034101 | 12 | 101 | 0.0 | 0.0 | 0.00 | 0.25 | 0.25 | 87 | 1003.0 |
| 20260905033508 | 12 | 101 | 0.0 | 0.0 | 0.00 | 0.25 | 0.25 | 87 | 1002.9 |
| 20260905033031 | 13 | 101 | 0.0 | 0.0 | 0.00 | 0.25 | 0.25 | 87 | 1003.0 |
| 20260905032541 | 13 | 101 | 0.0 | 0.0 | 0.00 | 0.25 | 0.25 | 87 | 1002.9 |
| 20260905032045 | 13 | 101 | 0.0 | 1.6 | 0.00 | 0.25 | 0.25 | 87 | 1002.7 |
| 20260905031514 | 13 | 101 | 0.0 | 1.6 | 0.00 | 0.25 | 0.25 | 87 | 1002.6 |
| 20260905031033 | 13 | 101 | 0.0 | 1.6 | 0.00 | 0.25 | 0.25 | 86 | 1002.7 |
| 20260905030534 | 13 | 101 | 0.0 | 0.0 | 0.00 | 0.25 | 0.25 | 86 | 1002.7 |
| 20260905030010 | 13 | 101 | 0.0 | 0.0 | 0.00 | 0.25 | 0.25 | 86 | 1002.7 |
| 20260905025511 | 13 | 101 | 0.0 | 0.0 | 0.00 | 0.25 | 0.25 | 86 | 1002.6 |
| 20260905025019 | 13 | 101 | 0.0 | 0.0 | 0.00 | 0.25 | 0.25 | 86 | 1002.5 |
| 20260905024600 | 13 | 101 | 0.0 | 0.0 | 0.00 | 0.25 | 0.25 | 86 | 1002.5 |
| 20260905024003 | 13 | 101 | 0.0 | 0.0 | 0.00 | 0.25 | 0.25 | 85 | 1002.5 |
| 20260905023510 | 13 | 101 | 0.0 | 3.2 | 0.00 | 0.25 | 0.25 | 85 | 1002.6 |
| 20260905023050 | 13 | 101 | 0.0 | 3.2 | 0.00 | 0.25 | 0.25 | 84 | 1002.5 |
| 20260905022555 | 13 | 101 | 1.6 | 3.2 | 0.00 | 0.25 | 0.25 | 84 | 1002.4 |
| 20260905022005 | 13 | 101 | 0.0 | 1.6 | 0.00 | 0.25 | 0.25 | 84 | 1002.5 |
| 20260905021540 | 13 | 101 | 0.0 | 1.6 | 0.00 | 0.25 | 0.25 | 83 | 1002.4 |
| 20260905021045 | 13 | 101 | 0.0 | 1.6 | 0.00 | 0.25 | 0.25 | 83 | 1002.4 |
| 20260905020553 | 14 | 101 | 0.0 | 3.2 | 0.00 | 0.25 | 0.25 | 83 | 1002.3 |
| 20260905020033 | 14 | 101 | 1.6 | 3.2 | 0.00 | 0.25 | 0.25 | 83 | 1002.2 |
| 20260905015538 | 14 | 101 | 0.0 | 1.6 | 0.00 | 0.25 | 0.25 | 83 | 1002.2 |
| 20260905015042 | 14 | 101 | 0.0 | 0.0 | 0.00 | 0.25 | 0.25 | 83 | 1002.1 |
| 20260905014507 | 14 | 101 | 0.0 | 0.0 | 0.00 | 0.25 | 0.25 | 83 | 1002.1 |
| 20260905014027 | 15 | 101 | 0.0 | 0.0 | 0.00 | 0.25 | 0.25 | 83 | 1002.1 |
| 20260905013536 | 15 | 101 | 0.0 | 3.2 | 0.00 | 0.25 | 0.25 | 83 | 1002.1 |
| 20260905013120 | 15 | 101 | 0.0 | 3.2 | 0.00 | 0.25 | 0.25 | 82 | 1002.0 |
| 20260905012517 | 15 | 101 | 0.0 | 0.0 | 0.00 | 0.25 | 0.25 | 82 | 1002.1 |
| 20260905012024 | 15 | 101 | 0.0 | 0.0 | 0.00 | 0.25 | 0.25 | 82 | 1002.0 |
| 20260905011557 | 15 | 101 | 0.0 | 3.2 | 0.00 | 0.25 | 0.25 | 82 | 1001.9 |
| 20260905011001 | 15 | 101 | 0.0 | 3.2 | 0.00 | 0.25 | 0.25 | 82 | 1002.0 |
| 20260905010510 | 15 | 101 | 0.0 | 1.6 | 0.00 | 0.25 | 0.25 | 81 | 1002.0 |
| 20260905010032 | 15 | 101 | 0.0 | 1.6 | 0.00 | 0.25 | 0.25 | 80 | 1002.0 |
| 20260905005537 | 15 | 101 | 0.0 | 1.6 | 0.00 | 0.25 | 0.25 | 80 | 1002.0 |
| 20260905005044 | 15 | 101 | 0.0 | 3.2 | 0.00 | 0.25 | 0.25 | 79 | 1002.0 |
| 20260905004522 | 15 | 101 | 0.0 | 4.8 | 0.00 | 0.25 | 0.25 | 78 | 1002.0 |
| 20260905004029 | 15 | 101 | 1.6 | 4.8 | 0.00 | 0.25 | 0.25 | 79 | 1002.0 |
| 20260905003539 | 16 | 355 | 0.0 | 4.8 | 0.00 | 0.25 | 0.25 | 79 | 1002.0 |
| 20260905003018 | 16 | 355 | 1.6 | 4.8 | 0.03 | 0.25 | 0.25 | 79 | 1001.9 |
| 20260905002526 | 15 | 42 | 0.0 | 4.8 | 0.03 | 0.25 | 0.25 | 80 | 1001.9 |
| 20260905002038 | 16 | 42 | 0.0 | 4.8 | 0.03 | 0.25 | 0.25 | 80 | 1001.9 |
| 20260905001502 | 16 | 67 | 1.6 | 4.8 | 0.03 | 0.25 | 0.25 | 80 | 1001.9 |
| 20260905001007 | 16 | 120 | 0.0 | 4.8 | 0.03 | 0.25 | 0.25 | 81 | 1002.1 |
| 20260905000522 | 16 | 120 | 0.0 | 4.8 | 0.03 | 0.25 | 0.25 | 81 | 1002.1 |
| 20260905000055 | 16 | 184 | 0.0 | 3.2 | 0.03 | 0.25 | 0.25 | 81 | 1002.2 |
| 20260904235600 | 16 | 184 | 0.0 | 4.8 | 0.03 | 0.25 | 0.25 | 81 | 1002.0 |
| 20260904235001 | 16 | 184 | 0.0 | 4.8 | 0.03 | 0.25 | 0.25 | 81 | 1002.1 |
| 20260904234545 | 16 | 212 | 0.0 | 4.8 | 0.03 | 0.25 | 0.25 | 81 | 1002.0 |
| 20260904234051 | 16 | 213 | 1.6 | 4.8 | 0.03 | 0.25 | 0.25 | 80 | 1001.9 |
| 20260904233559 | 16 | 202 | 1.6 | 4.8 | 0.03 | 0.25 | 0.25 | 81 | 1001.9 |
| 20260904233039 | 16 | 204 | 1.6 | 4.8 | 0.00 | 0.23 | 0.23 | 80 | 1001.8 |
| 20260904232548 | 17 | 172 | 0.0 | 4.8 | 0.00 | 0.23 | 0.23 | 79 | 1001.7 |
| 20260904232053 | 17 | 118 | 0.0 | 4.8 | 0.00 | 0.23 | 0.23 | 77 | 1001.7 |
| 20260904231506 | 17 | 138 | 0.0 | 6.4 | 0.00 | 0.23 | 0.23 | 77 | 1001.6 |
| 20260904231017 | 17 | 138 | 1.6 | 6.4 | 0.00 | 0.23 | 0.23 | 76 | 1001.7 |
| 20260904230529 | 17 | 247 | 1.6 | 8.0 | 0.00 | 0.23 | 0.23 | 75 | 1001.6 |
| 20260904230044 | 17 | 187 | 0.0 | 8.0 | 0.00 | 0.28 | 0.23 | 73 | 1001.6 |
| 20260904225551 | 17 | 177 | 3.2 | 8.0 | 0.00 | 0.28 | 0.23 | 72 | 1001.6 |
| 20260904225056 | 17 | 196 | 1.6 | 6.4 | 0.00 | 0.28 | 0.23 | 71 | 1001.4 |
| 20260904224533 | 17 | 242 | 1.6 | 11.3 | 0.00 | 0.28 | 0.23 | 70 | 1001.4 |
| 20260904224043 | 17 | 189 | 4.8 | 11.3 | 0.00 | 0.28 | 0.23 | 69 | 1001.4 |
| 20260904223548 | 17 | 125 | 1.6 | 6.4 | 0.00 | 0.28 | 0.23 | 70 | 1001.4 |
| 20260904223021 | 17 | 319 | 1.6 | 9.7 | 0.00 | 0.28 | 0.23 | 71 | 1001.4 |
| 20260904222530 | 17 | 200 | 1.6 | 9.7 | 0.00 | 0.28 | 0.23 | 68 | 1001.3 |
| 20260904222035 | 17 | 192 | 1.6 | 8.0 | 0.00 | 0.28 | 0.23 | 68 | 1001.4 |
| 20260904221554 | 17 | 167 | 0.0 | 8.0 | 0.00 | 0.28 | 0.23 | 66 | 1001.2 |
| 20260904221059 | 18 | 295 | 1.6 | 11.3 | 0.00 | 0.28 | 0.23 | 68 | 1001.3 |
| 20260904220508 | 18 | 175 | 3.2 | 14.5 | 0.00 | 0.28 | 0.23 | 67 | 1001.3 |
| 20260904220041 | 18 | 224 | 3.2 | 14.5 | 0.00 | 0.28 | 0.23 | 66 | 1001.2 |
| 20260904215547 | 18 | 207 | 4.8 | 16.1 | 0.00 | 0.28 | 0.23 | 68 | 1001.2 |
| 20260904215053 | 18 | 194 | 4.8 | 14.5 | 0.00 | 0.28 | 0.23 | 71 | 1001.3 |
| 20260904214529 | 18 | 154 | 4.8 | 8.0 | 0.00 | 0.28 | 0.23 | 66 | 1001.1 |
| 20260904214037 | 18 | 166 | 1.6 | 8.0 | 0.00 | 0.28 | 0.23 | 66 | 1001.1 |
| 20260904213543 | 18 | 113 | 1.6 | 8.0 | 0.00 | 0.28 | 0.23 | 65 | 1000.9 |
| 20260904213009 | 18 | 316 | 3.2 | 12.9 | 0.00 | 0.28 | 0.23 | 71 | 1000.9 |
| 20260904212516 | 17 | 102 | 3.2 | 12.9 | 0.00 | 0.28 | 0.23 | 68 | 1000.9 |
| 20260904212021 | 17 | 289 | 1.6 | 6.4 | 0.00 | 0.28 | 0.23 | 68 | 1001.0 |
| 20260904211600 | 17 | 240 | 1.6 | 8.0 | 0.00 | 0.28 | 0.23 | 75 | 1001.0 |
| 20260904211003 | 17 | 253 | 3.2 | 8.0 | 0.00 | 0.28 | 0.23 | 75 | 1001.0 |
| 20260904210509 | 17 | 245 | 1.6 | 6.4 | 0.00 | 0.28 | 0.23 | 75 | 1000.9 |
| 20260904210047 | 17 | 188 | 1.6 | 9.7 | 0.00 | 0.43 | 0.23 | 71 | 1000.9 |
| 20260904205557 | 17 | 106 | 1.6 | 9.7 | 0.00 | 0.43 | 0.23 | 69 | 1000.8 |
| 20260904205103 | 17 | 259 | 3.2 | 9.7 | 0.00 | 0.43 | 0.23 | 70 | 1000.8 |
| 20260904204539 | 17 | 55 | 0.0 | 6.4 | 0.00 | 0.43 | 0.23 | 72 | 1000.8 |
| 20260904204051 | 17 | 90 | 1.6 | 6.4 | 0.00 | 0.43 | 0.23 | 71 | 1000.8 |
| 20260904203557 | 17 | 42 | 1.6 | 6.4 | 0.00 | 0.43 | 0.23 | 71 | 1000.7 |
| 20260904203035 | 17 | 58 | 3.2 | 4.8 | 0.00 | 0.43 | 0.23 | 71 | 1000.7 |
| 20260904202541 | 17 | 19 | 1.6 | 12.9 | 0.00 | 0.43 | 0.23 | 72 | 1000.7 |
| 20260904202049 | 17 | 106 | 1.6 | 12.9 | 0.00 | 0.43 | 0.23 | 71 | 1000.8 |
| 20260904201524 | 18 | 38 | 4.8 | 11.3 | 0.00 | 0.43 | 0.23 | 74 | 1000.6 |
| 20260904201030 | 17 | 121 | 3.2 | 8.0 | 0.00 | 0.43 | 0.23 | 72 | 1000.8 |
| 20260904200538 | 17 | 304 | 0.0 | 4.8 | 0.00 | 0.43 | 0.23 | 75 | 1000.7 |
| 20260904200002 | 17 | 269 | 1.6 | 8.0 | 0.00 | 0.43 | 0.23 | 78 | 1000.7 |
| 20260904195523 | 17 | 52 | 1.6 | 8.0 | 0.00 | 0.43 | 0.23 | 77 | 1000.7 |
| 20260904195013 | 17 | 11 | 1.6 | 6.4 | 0.00 | 0.43 | 0.23 | 81 | 1000.8 |
| 20260904194603 | 17 | 360 | 1.6 | 4.8 | 0.00 | 0.43 | 0.23 | 76 | 1000.8 |
| 20260904194055 | 17 | 30 | 1.6 | 4.8 | 0.00 | 0.43 | 0.23 | 75 | 1001.0 |
| 20260904193603 | 17 | 355 | 1.6 | 6.4 | 0.00 | 0.43 | 0.23 | 76 | 1000.9 |
| 20260904193037 | 17 | 350 | 1.6 | 6.4 | 0.00 | 0.43 | 0.23 | 77 | 1000.9 |
| 20260904192546 | 17 | 238 | 1.6 | 4.8 | 0.00 | 0.43 | 0.23 | 81 | 1000.9 |
| 20260904192053 | 16 | 360 | 1.6 | 4.8 | 0.00 | 0.43 | 0.23 | 78 | 1001.0 |
| 20260904191519 | 16 | 39 | 0.0 | 4.8 | 0.00 | 0.43 | 0.23 | 80 | 1000.9 |
| 20260904191035 | 16 | 39 | 1.6 | 3.2 | 0.00 | 0.43 | 0.23 | 80 | 1001.0 |
| 20260904190543 | 16 | 40 | 0.0 | 4.8 | 0.00 | 0.43 | 0.23 | 80 | 1001.2 |
| 20260904190019 | 16 | 40 | 0.0 | 4.8 | 0.00 | 0.43 | 0.23 | 83 | 1001.1 |
| 20260904185525 | 16 | 41 | 1.6 | 8.0 | 0.00 | 0.43 | 0.23 | 83 | 1001.2 |
| 20260904185036 | 16 | 22 | 3.2 | 8.0 | 0.00 | 0.43 | 0.23 | 85 | 1001.1 |
| 20260904184615 | 16 | 42 | 0.0 | 4.8 | 0.00 | 0.43 | 0.23 | 86 | 1001.2 |
| 20260904184005 | 15 | 41 | 0.0 | 0.0 | 0.00 | 0.43 | 0.23 | 85 | 1001.1 |
| 20260904183514 | 15 | 41 | 0.0 | 0.0 | 0.00 | 0.43 | 0.23 | 84 | 1001.0 |
| 20260904183048 | 15 | 41 | 0.0 | 0.0 | 0.00 | 0.43 | 0.23 | 85 | 1000.9 |
| 20260904182559 | 15 | 42 | 0.0 | 0.0 | 0.00 | 0.43 | 0.23 | 84 | 1001.0 |
| 20260904182003 | 15 | 45 | 0.0 | 0.0 | 0.00 | 0.43 | 0.23 | 84 | 1001.0 |
| 20260904181540 | 15 | 45 | 0.0 | 0.0 | 0.00 | 0.43 | 0.23 | 86 | 1000.9 |
| 20260904181045 | 15 | 360 | 0.0 | 1.6 | 0.00 | 0.43 | 0.23 | 85 | 1000.8 |
| 20260904180556 | 15 | 360 | 0.0 | 1.6 | 0.00 | 0.43 | 0.23 | 86 | 1000.9 |
| 20260904180041 | 15 | 360 | 0.0 | 4.8 | 0.00 | 0.43 | 0.23 | 87 | 1000.8 |
| 20260904175530 | 15 | 360 | 1.6 | 4.8 | 0.00 | 0.43 | 0.23 | 87 | 1000.8 |
| 20260904175035 | 14 | 355 | 1.6 | 4.8 | 0.00 | 0.43 | 0.23 | 87 | 1000.7 |
| 20260904174505 | 14 | 355 | 0.0 | 0.0 | 0.00 | 0.43 | 0.23 | 87 | 1000.7 |
| 20260904174020 | 14 | 355 | 0.0 | 0.0 | 0.00 | 0.43 | 0.23 | 88 | 1000.7 |
| 20260904173526 | 14 | 355 | 0.0 | 0.0 | 0.00 | 0.43 | 0.23 | 87 | 1000.7 |
| 20260904173054 | 13 | 355 | 0.0 | 0.0 | 0.00 | 0.43 | 0.23 | 88 | 1000.7 |
| 20260904172556 | 13 | 306 | 0.0 | 4.8 | 0.00 | 0.43 | 0.23 | 88 | 1000.7 |
| 20260904172003 | 13 | 306 | 0.0 | 4.8 | 0.00 | 0.43 | 0.23 | 88 | 1000.7 |
| 20260904171608 | 13 | 306 | 0.0 | 3.2 | 0.00 | 0.43 | 0.23 | 88 | 1000.7 |
| 20260904171046 | 13 | 305 | 0.0 | 4.8 | 0.00 | 0.43 | 0.23 | 88 | 1000.6 |
| 20260904170552 | 13 | 301 | 1.6 | 4.8 | 0.00 | 0.43 | 0.23 | 89 | 1000.6 |
| 20260904170029 | 13 | 301 | 1.6 | 4.8 | 0.00 | 0.43 | 0.23 | 89 | 1000.6 |
| 20260904165533 | 13 | 301 | 0.0 | 4.8 | 0.03 | 0.43 | 0.23 | 89 | 1000.5 |
| 20260904165043 | 13 | 300 | 1.6 | 4.8 | 0.03 | 0.43 | 0.23 | 89 | 1000.5 |
| 20260904164519 | 13 | 300 | 0.0 | 1.6 | 0.03 | 0.43 | 0.23 | 89 | 1000.5 |
| 20260904164027 | 13 | 300 | 0.0 | 3.2 | 0.03 | 0.43 | 0.23 | 89 | 1000.4 |
| 20260904163535 | 13 | 300 | 0.0 | 3.2 | 0.03 | 0.43 | 0.23 | 90 | 1000.4 |
| 20260904163102 | 13 | 300 | 0.0 | 4.8 | 0.03 | 0.43 | 0.23 | 90 | 1000.4 |
| 20260904162506 | 13 | 300 | 1.6 | 4.8 | 0.03 | 0.43 | 0.23 | 90 | 1000.4 |
| 20260904162012 | 13 | 278 | 0.0 | 4.8 | 0.03 | 0.43 | 0.23 | 90 | 1000.3 |
| 20260904161555 | 13 | 278 | 0.0 | 4.8 | 0.03 | 0.43 | 0.23 | 90 | 1000.3 |
| 20260904161044 | 13 | 278 | 0.0 | 0.0 | 0.03 | 0.43 | 0.23 | 91 | 1000.2 |
| 20260904160550 | 12 | 277 | 0.0 | 0.0 | 0.03 | 0.43 | 0.23 | 90 | 1000.2 |
| 20260904160033 | 12 | 276 | 0.0 | 0.0 | 0.03 | 0.53 | 0.23 | 91 | 1000.3 |
| 20260904155529 | 12 | 276 | 0.0 | 0.0 | 0.00 | 0.51 | 0.20 | 91 | 1000.3 |
| 20260904155036 | 12 | 276 | 0.0 | 0.0 | 0.00 | 0.51 | 0.20 | 91 | 1000.3 |
| 20260904154558 | 12 | 276 | 0.0 | 0.0 | 0.00 | 0.51 | 0.20 | 91 | 1000.3 |
| 20260904154007 | 12 | 276 | 0.0 | 0.0 | 0.00 | 0.51 | 0.20 | 91 | 1000.3 |
| 20260904153505 | 12 | 277 | 0.0 | 0.0 | 0.00 | 0.51 | 0.20 | 91 | 1000.3 |
| 20260904153051 | 12 | 277 | 0.0 | 0.0 | 0.00 | 0.51 | 0.20 | 91 | 1000.3 |
| 20260904152549 | 11 | 277 | 0.0 | 0.0 | 0.00 | 0.51 | 0.20 | 91 | 1000.2 |
| 20260904152050 | 11 | 277 | 0.0 | 0.0 | 0.00 | 0.51 | 0.20 | 91 | 1000.1 |
| 20260904151524 | 11 | 277 | 0.0 | 0.0 | 0.00 | 0.51 | 0.20 | 91 | 1000.1 |
| 20260904151030 | 11 | 276 | 0.0 | 0.0 | 0.00 | 0.51 | 0.20 | 91 | 1000.0 |
| 20260904150536 | 11 | 276 | 0.0 | 0.0 | 0.00 | 0.51 | 0.20 | 91 | 1000.1 |
| 20260904150106 | 11 | 276 | 0.0 | 0.0 | 0.00 | 0.56 | 0.20 | 91 | 1000.0 |
| 20260904145517 | 11 | 276 | 0.0 | 0.0 | 0.00 | 0.56 | 0.20 | 91 | 1000.0 |
| 20260904145029 | 11 | 276 | 0.0 | 0.0 | 0.00 | 0.56 | 0.20 | 91 | 999.9 |
| 20260904144550 | 11 | 276 | 0.0 | 0.0 | 0.00 | 0.56 | 0.20 | 91 | 999.8 |
| 20260904144054 | 11 | 276 | 0.0 | 0.0 | 0.00 | 0.56 | 0.20 | 91 | 999.8 |
| 20260904143602 | 11 | 276 | 0.0 | 0.0 | 0.00 | 0.56 | 0.20 | 91 | 999.7 |
| 20260904143028 | 11 | 276 | 0.0 | 0.0 | 0.00 | 0.56 | 0.20 | 91 | 999.7 |
| 20260904142532 | 11 | 276 | 0.0 | 0.0 | 0.00 | 0.56 | 0.20 | 90 | 999.6 |
| 20260904142039 | 11 | 276 | 0.0 | 0.0 | 0.00 | 0.56 | 0.20 | 91 | 999.6 |
| 20260904141516 | 11 | 277 | 0.0 | 0.0 | 0.00 | 0.56 | 0.20 | 90 | 999.6 |
| 20260904141019 | 11 | 276 | 0.0 | 1.6 | 0.00 | 0.56 | 0.20 | 90 | 999.5 |
| 20260904140524 | 11 | 276 | 0.0 | 1.6 | 0.00 | 0.56 | 0.20 | 90 | 999.5 |
| 20260904140053 | 11 | 277 | 0.0 | 1.6 | 0.00 | 0.61 | 0.20 | 90 | 999.4 |
| 20260904135558 | 11 | 276 | 0.0 | 4.8 | 0.00 | 0.61 | 0.20 | 90 | 999.4 |
| 20260904135107 | 11 | 277 | 1.6 | 4.8 | 0.00 | 0.61 | 0.20 | 90 | 999.4 |
| 20260904134548 | 11 | 284 | 0.0 | 0.0 | 0.00 | 0.61 | 0.20 | 90 | 999.4 |
| 20260904134055 | 11 | 284 | 0.0 | 0.0 | 0.00 | 0.61 | 0.20 | 90 | 999.4 |
| 20260904133544 | 11 | 284 | 0.0 | 0.0 | 0.00 | 0.61 | 0.20 | 90 | 999.4 |
| 20260904133030 | 11 | 284 | 0.0 | 0.0 | 0.00 | 0.61 | 0.20 | 90 | 999.3 |
| 20260904132532 | 11 | 284 | 0.0 | 0.0 | 0.00 | 0.61 | 0.20 | 90 | 999.3 |
| 20260904132033 | 11 | 284 | 0.0 | 0.0 | 0.00 | 0.61 | 0.20 | 90 | 999.2 |
| 20260904131601 | 11 | 284 | 0.0 | 0.0 | 0.00 | 0.61 | 0.20 | 90 | 999.2 |
| 20260904131005 | 11 | 284 | 0.0 | 0.0 | 0.00 | 0.61 | 0.20 | 90 | 999.1 |
| 20260904130510 | 11 | 284 | 0.0 | 0.0 | 0.00 | 0.61 | 0.20 | 90 | 999.1 |
| 20260904130044 | 11 | 284 | 0.0 | 0.0 | 0.03 | 0.79 | 0.20 | 90 | 999.1 |
| 20260904125556 | 11 | 284 | 0.0 | 0.0 | 0.03 | 0.79 | 0.20 | 90 | 999.1 |
| 20260904125100 | 11 | 284 | 0.0 | 0.0 | 0.03 | 0.79 | 0.20 | 90 | 999.0 |
| 20260904124509 | 11 | 284 | 0.0 | 0.0 | 0.03 | 0.79 | 0.20 | 90 | 999.0 |
| 20260904124015 | 11 | 284 | 0.0 | 0.0 | 0.03 | 0.79 | 0.20 | 90 | 999.0 |
| 20260904123527 | 11 | 284 | 0.0 | 0.0 | 0.03 | 0.79 | 0.20 | 90 | 999.0 |
| 20260904123054 | 11 | 284 | 0.0 | 0.0 | 0.05 | 0.79 | 0.20 | 90 | 998.9 |
| 20260904122556 | 11 | 284 | 0.0 | 0.0 | 0.05 | 0.79 | 0.20 | 90 | 999.0 |
| 20260904122002 | 11 | 284 | 0.0 | 0.0 | 0.08 | 0.79 | 0.20 | 90 | 998.8 |
| 20260904121539 | 11 | 284 | 0.0 | 0.0 | 0.10 | 0.79 | 0.20 | 90 | 998.7 |
| 20260904121039 | 11 | 284 | 0.0 | 0.0 | 0.10 | 0.79 | 0.20 | 90 | 998.8 |
| 20260904120544 | 11 | 284 | 0.0 | 0.0 | 0.13 | 0.79 | 0.20 | 90 | 998.7 |
| 20260904120018 | 11 | 284 | 0.0 | 0.0 | 0.13 | 0.76 | 0.18 | 90 | 998.6 |
| 20260904115522 | 11 | 284 | 0.0 | 0.0 | 0.13 | 0.76 | 0.18 | 90 | 998.7 |
| 20260904115032 | 11 | 284 | 0.0 | 0.0 | 0.15 | 0.76 | 0.18 | 90 | 998.6 |
| 20260904114605 | 11 | 284 | 0.0 | 0.0 | 0.18 | 0.76 | 0.18 | 90 | 998.6 |
| 20260904114002 | 11 | 284 | 0.0 | 0.0 | 0.18 | 0.76 | 0.18 | 90 | 998.6 |
| 20260904113506 | 11 | 284 | 0.0 | 0.0 | 0.18 | 0.76 | 0.18 | 90 | 998.5 |
| 20260904113033 | 11 | 284 | 0.0 | 0.0 | 0.15 | 0.71 | 0.15 | 90 | 998.5 |
| 20260904112537 | 11 | 284 | 0.0 | 0.0 | 0.15 | 0.71 | 0.15 | 90 | 998.4 |
| 20260904112039 | 11 | 284 | 0.0 | 0.0 | 0.13 | 0.71 | 0.13 | 90 | 998.4 |
| 20260904111515 | 11 | 284 | 0.0 | 0.0 | 0.10 | 0.69 | 0.10 | 90 | 998.3 |
| 20260904111022 | 11 | 284 | 0.0 | 0.0 | 0.10 | 0.69 | 0.10 | 90 | 998.3 |
| 20260904110525 | 11 | 313 | 0.0 | 0.0 | 0.08 | 0.66 | 0.08 | 90 | 998.3 |
| 20260904110050 | 11 | 313 | 0.0 | 0.0 | 0.05 | 0.64 | 0.05 | 90 | 998.2 |
| 20260904105558 | 11 | 313 | 0.0 | 0.0 | 0.05 | 0.64 | 0.05 | 90 | 998.3 |
| 20260904105108 | 11 | 313 | 0.0 | 0.0 | 0.03 | 0.61 | 0.03 | 90 | 998.3 |
| 20260904104600 | 11 | 313 | 0.0 | 0.0 | 0.00 | 0.58 | 0.00 | 89 | 998.3 |
| 20260904104045 | 11 | 313 | 0.0 | 0.0 | 0.00 | 0.58 | 0.00 | 90 | 998.3 |
| 20260904103553 | 11 | 313 | 0.0 | 0.0 | 0.00 | 0.58 | 0.00 | 90 | 998.3 |
| 20260904103024 | 11 | 313 | 0.0 | 0.0 | 0.00 | 0.58 | 0.00 | 89 | 998.2 |
| 20260904102530 | 11 | 313 | 0.0 | 0.0 | 0.00 | 0.58 | 0.00 | 89 | 998.1 |
| 20260904102039 | 11 | 313 | 0.0 | 0.0 | 0.00 | 0.58 | 0.00 | 89 | 998.2 |
| 20260904101505 | 11 | 313 | 0.0 | 0.0 | 0.00 | 0.58 | 0.00 | 89 | 998.3 |
| 20260904101016 | 10 | 313 | 0.0 | 0.0 | 0.00 | 0.58 | 0.00 | 89 | 998.2 |
| 20260904100525 | 10 | 313 | 0.0 | 0.0 | 0.00 | 0.58 | 0.00 | 89 | 998.1 |
| 20260904100109 | 10 | 313 | 0.0 | 0.0 | 0.00 | 0.61 | 0.00 | 89 | 998.1 |
| 20260904095556 | 10 | 313 | 0.0 | 0.0 | 0.00 | 0.61 | 0.00 | 89 | 998.2 |
| 20260904095004 | 10 | 313 | 0.0 | 0.0 | 0.00 | 0.61 | 0.00 | 89 | 998.1 |
| 20260904094550 | 11 | 313 | 0.0 | 0.0 | 0.00 | 0.61 | 0.00 | 89 | 998.2 |
| 20260904094036 | 11 | 313 | 0.0 | 0.0 | 0.00 | 0.61 | 0.00 | 89 | 998.1 |
| 20260904093541 | 11 | 313 | 0.0 | 0.0 | 0.00 | 0.61 | 0.00 | 89 | 998.1 |
| 20260904093017 | 11 | 313 | 0.0 | 0.0 | 0.00 | 0.61 | 0.00 | 89 | 998.1 |
| 20260904092523 | 11 | 313 | 0.0 | 0.0 | 0.00 | 0.61 | 0.00 | 89 | 998.1 |
| 20260904092023 | 11 | 313 | 0.0 | 0.0 | 0.00 | 0.61 | 0.00 | 89 | 997.9 |
| 20260904091552 | 11 | 313 | 0.0 | 0.0 | 0.00 | 0.61 | 0.00 | 89 | 997.9 |
| 20260904091059 | 11 | 313 | 0.0 | 0.0 | 0.00 | 0.61 | 0.00 | 89 | 997.9 |
| 20260904090559 | 11 | 313 | 0.0 | 0.0 | 0.00 | 0.61 | 0.00 | 89 | 997.9 |
| 20260904090034 | 11 | 313 | 0.0 | 0.0 | 0.00 | 0.61 | 0.00 | 89 | 998.0 |
| 20260904085542 | 11 | 313 | 0.0 | 0.0 | 0.00 | 0.61 | 0.00 | 89 | 997.9 |
| 20260904085048 | 11 | 313 | 0.0 | 0.0 | 0.00 | 0.61 | 0.00 | 89 | 997.9 |
| 20260904084518 | 11 | 313 | 0.0 | 0.0 | 0.00 | 0.61 | 0.00 | 89 | 997.9 |
| 20260904084029 | 11 | 313 | 0.0 | 0.0 | 0.00 | 0.61 | 0.00 | 89 | 997.9 |
| 20260904083535 | 11 | 313 | 0.0 | 0.0 | 0.00 | 0.61 | 0.00 | 89 | 997.9 |
| 20260904083102 | 11 | 313 | 0.0 | 0.0 | 0.00 | 0.61 | 0.00 | 89 | 997.9 |
| 20260904082504 | 11 | 313 | 0.0 | 0.0 | 0.00 | 0.61 | 0.00 | 89 | 997.9 |
| 20260904082016 | 11 | 313 | 0.0 | 0.0 | 0.00 | 0.61 | 0.00 | 89 | 998.0 |
| 20260904081548 | 11 | 313 | 0.0 | 0.0 | 0.00 | 0.61 | 0.00 | 89 | 998.0 |
| 20260904081056 | 11 | 313 | 0.0 | 0.0 | 0.00 | 0.61 | 0.00 | 89 | 997.9 |
| 20260904080602 | 11 | 313 | 0.0 | 0.0 | 0.00 | 0.61 | 0.00 | 89 | 998.0 |
| 20260904080040 | 11 | 313 | 0.0 | 0.0 | 0.00 | 0.61 | 0.00 | 89 | 997.9 |
| 20260904075538 | 11 | 313 | 0.0 | 0.0 | 0.00 | 0.61 | 0.00 | 89 | 998.0 |
| 20260904075046 | 11 | 313 | 0.0 | 0.0 | 0.00 | 0.61 | 0.00 | 89 | 998.2 |
| 20260904074528 | 11 | 313 | 0.0 | 0.0 | 0.00 | 0.61 | 0.00 | 89 | 998.1 |
| 20260904074030 | 11 | 313 | 0.0 | 0.0 | 0.00 | 0.61 | 0.00 | 89 | 998.1 |
| 20260904073536 | 11 | 313 | 0.0 | 0.0 | 0.00 | 0.61 | 0.00 | 89 | 998.1 |
| 20260904073013 | 11 | 313 | 0.0 | 0.0 | 0.00 | 0.61 | 0.00 | 88 | 998.0 |
| 20260904072508 | 11 | 313 | 0.0 | 0.0 | 0.00 | 0.61 | 0.00 | 89 | 998.1 |
| 20260904072011 | 11 | 313 | 0.0 | 0.0 | 0.00 | 0.61 | 0.00 | 89 | 998.1 |
| 20260904071553 | 11 | 313 | 0.0 | 0.0 | 0.00 | 0.61 | 0.00 | 89 | 998.0 |
| 20260904071057 | 11 | 313 | 0.0 | 0.0 | 0.00 | 0.61 | 0.00 | 88 | 997.9 |
| 20260904070556 | 11 | 313 | 0.0 | 0.0 | 0.00 | 0.61 | 0.00 | 88 | 997.9 |
| 20260904070040 | 11 | 313 | 0.0 | 0.0 | 0.00 | 0.61 | 0.61 | 88 | 997.9 |
| 20260904065533 | 11 | 313 | 0.0 | 0.0 | 0.00 | 0.61 | 0.61 | 88 | 997.9 |
| 20260904065038 | 12 | 313 | 0.0 | 0.0 | 0.00 | 0.61 | 0.61 | 88 | 998.0 |
| 20260904064607 | 12 | 313 | 0.0 | 0.0 | 0.00 | 0.61 | 0.61 | 88 | 998.0 |
| 20260904064004 | 12 | 313 | 0.0 | 0.0 | 0.00 | 0.61 | 0.61 | 88 | 997.9 |
| 20260904063520 | 12 | 313 | 0.0 | 0.0 | 0.00 | 0.61 | 0.61 | 88 | 997.9 |
| 20260904063044 | 12 | 313 | 0.0 | 0.0 | 0.00 | 0.61 | 0.61 | 88 | 997.9 |
| 20260904062542 | 12 | 313 | 0.0 | 0.0 | 0.00 | 0.61 | 0.61 | 88 | 997.8 |
| 20260904062051 | 12 | 313 | 0.0 | 0.0 | 0.00 | 0.61 | 0.61 | 88 | 997.8 |
| 20260904061527 | 12 | 313 | 0.0 | 0.0 | 0.00 | 0.61 | 0.61 | 88 | 997.8 |
| 20260904061016 | 12 | 313 | 0.0 | 0.0 | 0.00 | 0.61 | 0.61 | 88 | 997.8 |
| 20260904060524 | 12 | 313 | 0.0 | 0.0 | 0.00 | 0.61 | 0.61 | 88 | 997.7 |
| 20260904060120 | 12 | 313 | 0.0 | 0.0 | 0.00 | 0.64 | 0.61 | 88 | 997.8 |
| 20260904055502 | 12 | 313 | 0.0 | 0.0 | 0.00 | 0.64 | 0.61 | 88 | 997.8 |
| 20260904055006 | 12 | 313 | 0.0 | 0.0 | 0.00 | 0.64 | 0.61 | 88 | 997.8 |
| 20260904054548 | 12 | 313 | 0.0 | 0.0 | 0.00 | 0.64 | 0.61 | 88 | 997.9 |
| 20260904054048 | 12 | 313 | 0.0 | 0.0 | 0.00 | 0.64 | 0.61 | 88 | 997.9 |
| 20260904053556 | 12 | 313 | 0.0 | 0.0 | 0.00 | 0.64 | 0.61 | 88 | 997.9 |
| 20260904053110 | 12 | 313 | 0.0 | 0.0 | 0.00 | 0.64 | 0.61 | 88 | 997.8 |
| 20260904052542 | 12 | 313 | 0.0 | 0.0 | 0.00 | 0.64 | 0.61 | 88 | 997.9 |
| 20260904052048 | 12 | 313 | 0.0 | 0.0 | 0.00 | 0.64 | 0.61 | 88 | 997.9 |
| 20260904051529 | 12 | 313 | 0.0 | 0.0 | 0.00 | 0.64 | 0.61 | 88 | 997.8 |
| 20260904051031 | 12 | 313 | 0.0 | 0.0 | 0.00 | 0.64 | 0.61 | 88 | 997.9 |
| 20260904050525 | 12 | 313 | 0.0 | 0.0 | 0.00 | 0.64 | 0.61 | 88 | 998.0 |
| 20260904050036 | 12 | 313 | 0.0 | 0.0 | 0.00 | 0.64 | 0.61 | 88 | 998.0 |
| 20260904045542 | 12 | 313 | 0.0 | 0.0 | 0.00 | 0.64 | 0.61 | 88 | 997.9 |